Wind_Speed
28 27 26 24 23 22 21 20 18 18 20 19 18 16 15 14 13 22 31 26 22 20 18 17 16 17 17 14 13 7 5 6 6 6 13 7 8 16 14 14 11 4 5 6 11
30 29 29 28 28 26 25 24 23 21 20 21 21 19 17 17 17 20 30 29 24 23 21 20 19 18 19 17 14 9 10 7 6 8 8 6 6 10 20 13 9 5 2 4 8
29 30 29 29 28 28 28 27 26 25 24 21 23 23 21 19 19 20 24 29 29 27 25 23 22 21 19 18 13 4 13 9 4 7 5 9 7 11 5 7 7 6 3 5 7
20 20 23 27 28 29 28 28 28 27 27 25 24 24 24 22 19 21 22 24 27 29 27 26 23 22 20 19 16 6 8 5 10 5 10 8 5 6 14 9 8 4 4 5 8
18 19 21 22 23 24 26 28 28 28 28 28 28 26 25 25 22 23 22 24 24 25 28 28 25 23 21 20 17 12 7 12 8 7 5 4 2 4 7 14 8 6 4 5 5
20 19 19 22 23 23 24 25 28 29 29 29 29 30 27 25 22 26 25 25 28 27 27 29 27 26 26 25 21 17 18 11 14 11 5 2 3 2 9 12 11 7 6 6 6
22 23 23 21 23 24 23 26 27 28 29 30 30 31 30 29 22 28 27 26 27 30 28 28 30 31 30 28 28 14 13 11 9 10 10 6 3 1 14 10 12 9 6 5 8
25 23 24 22 22 24 24 24 26 27 28 29 30 30 31 32 27 28 29 29 29 29 32 31 32 34 30 29 24 23 18 9 9 6 6 6 6 9 11 9 10 9 7 7 5
25 22 21 22 19 18 23 25 26 27 29 29 29 28 32 30 30 32 29 31 32 31 30 33 32 30 31 28 26 24 19 13 10 17 13 10 15 24 16 10 10 9 8 10 8
24 25 25 22 23 20 20 23 26 27 29 31 31 31 32 31 33 33 32 31 33 33 32 31 32 29 29 28 25 20 15 17 15 17 20 18 17 16 13 9 10 8 1 6 10
25 25 25 26 25 24 24 24 25 26 27 30 30 33 34 33 35 36 34 32 33 35 34 32 29 31 29 24 20 23 20 17 17 16 25 16 19 16 15 11 14 6 5 6 6
25 25 24 25 25 27 28 28 27 27 28 30 30 34 36 35 36 36 37 36 35 31 32 34 33 30 31 30 27 26 30 19 21 25 26 24 15 10 20 17 17 11 5 11 6
28 29 28 23 21 24 29 32 31 30 29 29 27 33 35 35 35 36 36 36 35 33 33 32 29 31 30 33 33 29 32 23 18 23 28 26 15 10 13 20 11 14 13 12 9
32 33 32 24 17 16 25 31 24 22 23 27 25 28 33 31 35 37 37 37 37 36 35 32 32 35 33 32 35 33 30 18 20 27 21 17 11 10 12 12 10 13 18 14 11
31 28 24 19 16 14 11 9 6 8 11 15 24 29 30 29 32 37 37 38 39 37 38 34 35 37 38 35 34 35 34 21 20 19 17 17 16 13 17 17 13 13 19 19 15
27 26 17 13 16 15 8 1 13 15 15 7 3 5 16 24 30 35 33 39 40 41 41 37 37 35 39 39 37 37 38 28 22 19 34 20 15 24 24 20 21 18 22 17 13
24 20 10 12 15 10 1 12 17 19 17 12 2 3 7 18 24 31 35 39 41 41 44 40 41 40 38 38 41 39 47 34 26 25 25 19 21 33 27 23 23 29 19 20 18
21 13 11 10 13 5 3 16 6 6 17 20 13 3 10 19 21 19 29 37 37 38 37 40 42 43 40 40 42 40 49 40 30 25 19 15 25 28 35 29 26 24 3 15 16
15 12 13 10 9 8 3 8 12 6 20 17 11 7 7 12 13 14 16 26 32 34 29 24 33 30 40 43 36 35 41 37 14 18 26 18 28 33 34 35 29 16 19 12 22
9 8 9 6 4 9 1 5 8 9 3 14 14 20 21 17 14 18 13 17 21 35 36 32 36 41 37 28 34 30 36 38 30 26 23 26 33 34 35 36 30 18 14 20 19
11 7 9 9 8 6 6 13 12 11 2 20 18 24 30 33 35 29 29 32 33 35 38 37 28 33 29 36 31 37 40 46 40 38 35 33 30 36 38 31 28 25 22 22 24
10 3 5 8 10 13 10 13 11 11 2 12 14 23 20 33 37 21 28 31 34 37 37 44 29 37 36 33 35 39 40 37 47 42 32 33 40 37 36 38 30 32 29 28 26
7 9 6 6 3 5 8 12 10 8 6 13 19 24 25 27 22 29 23 26 34 35 37 38 35 32 35 37 37 44 35 45 46 47 39 37 39 28 29 35 39 31 29 28 30
5 4 6 6 7 11 11 8 6 6 4 4 14 23 32 29 20 23 25 32 34 29 36 36 38 34 38 33 37 43 46 49 41 53 43 46 39 34 26 30 23 27 31 27 27
3 2 5 6 6 8 10 10 7 4 5 2 10 16 27 36 34 28 31 24 31 23 19 33 33 43 34 34 34 44 52 50 47 48 44 44 36 35 30 26 30 26 26 32 29
2 1 2 4 7 8 12 11 8 4 4 3 4 7 12 3 28 30 30 34 24 24 22 30 38 43 43 32 33 33 36 46 44 40 43 55 54 42 41 28 21 29 27 28 31
2 2 3 4 4 7 9 10 9 7 3 0 3 7 3 8 12 29 19 26 20 24 32 34 35 43 48 46 37 37 34 34 43 40 54 59 61 59 42 31 30 34 29 29 28
Wind_Direction
276 273 270 264 258 253 248 246 243 241 241 238 233 230 217 208 198 192 197 201 201 197 193 186 186 186 177 175 187 185 159 114 66 60 107 132 132 138 151 150 133 109 137 137 138
285 281 276 271 266 260 254 245 242 237 235 235 234 229 218 207 200 197 200 205 204 202 198 192 191 192 181 183 184 169 153 132 97 89 116 148 158 168 143 161 145 129 111 134 126
293 287 288 279 273 268 261 254 243 239 232 230 231 230 225 209 204 201 200 206 209 207 205 203 195 196 193 192 187 33 132 128 95 94 139 136 140 168 176 145 161 160 144 141 128
303 290 282 278 277 270 266 259 253 243 238 229 228 228 226 219 203 204 203 204 210 210 210 207 206 198 202 202 198 145 130 165 132 106 125 113 137 197 148 178 199 178 136 152 150
302 288 278 270 265 264 263 263 257 251 243 237 228 225 225 222 205 207 202 203 206 207 207 206 206 202 199 202 198 208 199 157 166 148 168 151 150 200 189 171 193 182 147 150 168
309 298 282 277 272 263 251 249 255 252 248 243 234 229 224 223 204 214 208 200 202 205 206 206 203 206 203 203 191 199 149 201 179 167 181 153 195 161 204 194 198 195 169 160 180
309 305 296 283 271 269 265 249 243 245 247 245 240 233 229 225 205 215 212 207 204 203 205 205 203 209 206 209 194 193 212 176 166 192 166 173 168 216 162 172 186 184 188 181 179
309 307 304 296 275 266 261 260 250 239 237 240 241 236 232 227 215 218 211 209 209 205 206 205 206 212 211 210 205 202 197 202 208 226 227 189 194 204 172 183 189 186 197 209 191
312 306 302 302 297 269 261 253 255 246 234 233 236 238 235 230 224 220 212 210 210 209 207 208 211 210 215 217 211 217 205 196 173 240 228 219 232 235 174 165 186 191 220 217 196
312 311 307 297 289 280 268 258 247 251 245 231 228 231 231 223 221 223 219 212 212 210 209 209 213 211 209 212 212 212 196 197 197 214 244 238 241 248 146 173 180 193 161 230 215
319 311 304 295 288 279 271 260 254 243 243 239 230 229 226 227 225 221 218 217 214 212 210 211 209 212 213 205 204 193 195 208 192 214 241 254 230 250 259 276 284 238 208 264 243
327 318 310 300 290 279 270 264 253 245 238 234 228 228 222 222 220 218 220 218 217 215 214 210 208 209 210 205 202 195 179 186 224 215 239 244 269 277 238 250 226 238 224 254 276
328 326 324 318 296 276 264 261 253 244 239 234 228 227 230 219 217 216 216 218 216 213 214 211 208 213 213 206 201 197 188 186 236 250 256 228 222 242 241 228 207 233 231 239 232
334 338 340 342 322 285 259 262 266 260 239 231 229 224 226 222 216 212 211 213 214 210 211 208 210 208 208 215 203 197 179 173 232 249 247 252 256 194 216 227 252 234 232 234 240
340 347 348 345 352 347 309 293 205 238 201 241 221 221 218 216 215 211 207 210 210 209 211 204 206 211 207 209 205 196 171 178 237 246 248 240 254 233 231 234 237 241 212 223 219
344 350 344 353 350 347 331 156 148 155 160 150 237 244 223 215 211 206 201 206 210 208 208 205 201 211 215 206 209 188 177 188 215 217 220 228 244 255 255 242 249 234 221 211 215
348 354 9 4 360 341 127 147 165 176 151 129 358 199 204 207 207 216 197 204 210 209 209 201 205 204 217 213 211 191 186 195 200 227 229 213 208 241 256 248 265 292 224 205 199
347 5 3 358 3 8 117 161 194 244 144 137 150 348 196 178 193 202 201 205 206 206 209 210 206 202 209 216 218 205 196 196 211 209 186 167 225 241 244 255 260 264 309 240 215
350 349 359 338 12 18 119 191 317 313 146 128 122 187 152 143 202 206 221 210 201 206 194 191 210 216 215 213 218 209 209 194 191 232 232 219 234 242 247 249 257 261 248 243 247
2 335 331 298 37 9 185 327 20 36 219 157 156 180 165 192 197 217 196 170 191 191 195 196 207 205 218 214 213 213 204 195 190 183 203 224 234 242 248 249 257 271 264 247 252
7 6 323 345 326 27 31 344 350 350 321 177 193 187 196 179 188 186 200 186 195 200 202 199 204 202 210 213 205 206 202 202 197 192 212 219 226 235 240 246 253 261 268 268 259
17 322 353 10 328 321 322 334 322 319 275 203 219 211 221 192 199 199 198 204 209 208 202 202 197 200 193 202 194 202 211 206 204 204 213 220 227 239 241 250 248 250 256 257 261
8 356 12 13 319 281 324 304 287 310 294 220 217 214 227 206 210 210 213 228 213 214 206 208 201 193 187 201 202 208 206 203 204 208 217 238 231 242 249 251 249 249 248 257 256
29 357 37 17 353 340 335 314 291 268 296 251 233 210 217 236 220 216 232 236 232 220 215 212 212 197 198 194 204 206 209 216 209 213 221 234 232 241 239 236 239 240 236 236 243
42 25 53 41 5 349 349 346 306 279 252 205 214 218 227 239 230 216 220 226 232 213 209 216 225 232 184 198 202 206 213 215 213 209 222 240 241 245 233 239 234 245 237 232 242
60 358 44 47 18 20 29 12 8 341 292 247 249 244 225 223 208 221 231 246 227 223 206 214 223 226 234 202 206 211 225 220 215 224 224 229 234 241 247 243 230 231 238 232 236
226 253 326 320 347 5 7 14 24 31 27 307 217 270 97 170 208 217 230 224 224 226 234 234 232 229 221 217 213 209 205 193 211 223 226 225 227 229 239 247 247 245 244 242 238
Height
5848 5848 5848 5848 5848 5848 5849 5850 5850 5851 5853 5855 5857 5859 5862 5863 5865 5868 5872 5877 5880 5884 5887 5890 5892 5894 5896 5897 5899 5900 5901 5902 5901 5901 5901 5902 5902 5905 5905 5910 5908 5911 5911 5913 5915
5842 5842 5842 5842 5843 5844 5844 5845 5846 5847 5848 5850 5853 5855 5857 5860 5863 5865 5870 5873 5878 5881 5885 5888 5890 5893 5895 5896 5896 5898 5901 5901 5902 5902 5902 5903 5905 5908 5902 5911 5910 5911 5913 5913 5918
5836 5836 5836 5836 5837 5838 5839 5840 5841 5843 5844 5846 5848 5850 5854 5856 5860 5862 5865 5869 5874 5877 5881 5885 5888 5891 5893 5895 5896 5894 5897 5902 5903 5903 5904 5906 5905 5909 5909 5910 5913 5913 5913 5916 5917
5830 5829 5829 5829 5830 5831 5832 5834 5835 5837 5839 5841 5843 5845 5849 5853 5858 5859 5862 5866 5870 5874 5878 5882 5886 5889 5892 5894 5895 5898 5899 5903 5904 5904 5905 5907 5907 5910 5907 5913 5914 5915 5915 5917 5918
5825 5823 5822 5821 5822 5823 5825 5827 5829 5831 5834 5836 5838 5840 5844 5848 5853 5855 5859 5862 5866 5870 5874 5879 5883 5886 5889 5892 5896 5897 5899 5902 5902 5904 5906 5910 5910 5910 5910 5909 5915 5915 5916 5918 5918
5820 5819 5817 5816 5816 5816 5817 5819 5821 5824 5827 5830 5833 5835 5839 5843 5850 5851 5854 5858 5862 5866 5870 5875 5880 5882 5884 5888 5891 5896 5897 5900 5901 5904 5906 5908 5911 5912 5912 5913 5914 5915 5917 5919 5919
5815 5813 5812 5810 5810 5809 5810 5811 5813 5816 5819 5823 5826 5830 5834 5837 5844 5846 5850 5854 5857 5862 5866 5871 5875 5877 5880 5885 5887 5894 5896 5897 5898 5903 5907 5908 5909 5911 5913 5914 5913 5914 5917 5919 5920
5809 5806 5804 5803 5802 5802 5802 5804 5805 5808 5811 5815 5819 5823 5827 5832 5839 5840 5844 5849 5853 5857 5861 5866 5869 5873 5878 5880 5886 5890 5894 5896 5898 5901 5905 5907 5909 5908 5908 5912 5914 5915 5917 5919 5920
5805 5801 5798 5797 5795 5794 5795 5796 5798 5800 5802 5807 5812 5817 5820 5828 5832 5834 5839 5844 5848 5853 5857 5861 5865 5870 5874 5879 5883 5886 5893 5898 5901 5900 5904 5906 5906 5873 5905 5911 5913 5916 5918 5918 5920
5801 5797 5793 5791 5789 5789 5788 5788 5789 5793 5795 5798 5803 5810 5813 5819 5823 5829 5834 5838 5843 5847 5852 5856 5862 5867 5870 5874 5881 5887 5892 5894 5898 5901 5900 5903 5906 5906 5903 5911 5916 5917 5917 5919 5921
5797 5792 5788 5785 5782 5781 5781 5781 5784 5785 5788 5791 5796 5799 5804 5811 5816 5821 5826 5832 5836 5841 5846 5852 5858 5863 5869 5875 5880 5883 5888 5893 5897 5897 5893 5897 5903 5903 5908 5912 5917 5918 5917 5919 5919
5790 5787 5782 5779 5775 5772 5771 5771 5774 5777 5779 5781 5786 5789 5794 5802 5807 5814 5820 5826 5830 5837 5842 5847 5853 5860 5864 5869 5875 5880 5880 5886 5892 5893 5894 5898 5901 5904 5908 5910 5911 5913 5916 5918 5918
5782 5777 5773 5769 5766 5765 5763 5762 5763 5766 5771 5774 5778 5781 5786 5794 5800 5806 5813 5819 5825 5831 5836 5843 5852 5855 5860 5864 5869 5875 5878 5881 5885 5888 5890 5892 5896 5901 5904 5905 5907 5909 5912 5915 5917
5775 5769 5764 5760 5759 5756 5755 5752 5754 5758 5762 5767 5771 5774 5778 5786 5792 5797 5805 5812 5819 5825 5831 5838 5843 5847 5854 5860 5865 5871 5879 5882 5880 5883 5885 5886 5894 5894 5898 5902 5903 5907 5908 5910 5912
5771 5765 5760 5756 5755 5753 5751 5748 5750 5752 5757 5760 5763 5766 5771 5779 5785 5790 5797 5803 5811 5819 5825 5833 5836 5841 5846 5854 5860 5868 5875 5878 5876 5880 5885 5885 5887 5891 5896 5899 5902 5904 5905 5908 5910
5768 5763 5758 5757 5754 5752 5749 5749 5750 5753 5752 5755 5762 5765 5769 5773 5778 5784 5792 5797 5804 5811 5817 5827 5830 5837 5842 5847 5854 5865 5870 5870 5874 5877 5878 5884 5885 5887 5890 5897 5897 5897 5901 5905 5909
5766 5762 5758 5756 5754 5751 5748 5749 5750 5750 5752 5757 5761 5763 5766 5769 5774 5779 5786 5790 5797 5805 5810 5818 5824 5828 5836 5843 5847 5857 5861 5865 5869 5869 5875 5884 5885 5882 5884 5889 5893 5897 5894 5901 5902
5764 5761 5760 5757 5755 5752 5749 5750 5751 5750 5750 5754 5758 5763 5766 5768 5772 5775 5782 5786 5794 5800 5807 5814 5818 5821 5829 5835 5841 5851 5855 5861 5865 5869 5876 5880 5879 5881 5882 5887 5888 5892 5895 5903 5904
5764 5761 5760 5757 5755 5751 5752 5754 5753 5753 5752 5754 5757 5765 5767 5770 5775 5777 5780 5786 5791 5797 5802 5804 5814 5822 5824 5829 5838 5847 5852 5861 5864 5871 5875 5876 5876 5875 5877 5878 5885 5894 5903 5903 5898
5764 5761 5761 5759 5756 5753 5752 5752 5751 5752 5753 5754 5755 5758 5763 5768 5774 5775 5778 5779 5788 5786 5791 5799 5806 5812 5817 5827 5835 5842 5852 5855 5857 5861 5868 5868 5870 5867 5867 5873 5882 5889 5893 5896 5895
5764 5762 5760 5756 5755 5757 5754 5752 5751 5750 5752 5754 5753 5753 5756 5755 5759 5762 5770 5774 5775 5784 5790 5796 5803 5809 5816 5821 5829 5833 5837 5845 5851 5854 5856 5859 5860 5860 5859 5867 5876 5883 5887 5889 5890
5764 5762 5760 5757 5755 5752 5752 5751 5752 5749 5750 5752 5754 5753 5755 5756 5761 5763 5769 5774 5778 5780 5787 5789 5796 5804 5808 5813 5822 5825 5831 5839 5844 5851 5852 5848 5854 5855 5860 5864 5872 5875 5879 5882 5883
5763 5761 5759 5757 5756 5754 5752 5751 5750 5749 5748 5748 5749 5752 5753 5755 5760 5765 5768 5773 5776 5779 5785 5791 5797 5794 5802 5810 5814 5817 5823 5827 5836 5843 5844 5842 5846 5849 5855 5861 5866 5871 5875 5876 5878
5761 5761 5759 5756 5755 5753 5751 5749 5748 5747 5748 5747 5748 5749 5751 5753 5758 5761 5763 5766 5770 5776 5782 5787 5789 5792 5797 5798 5803 5810 5814 5821 5831 5836 5835 5829 5838 5843 5847 5850 5858 5863 5868 5872 5873
5761 5761 5759 5757 5756 5754 5751 5748 5746 5746 5746 5746 5746 5746 5748 5748 5754 5754 5758 5762 5767 5773 5777 5783 5786 5784 5787 5794 5799 5802 5806 5814 5824 5828 5825 5822 5831 5835 5840 5844 5851 5856 5861 5866 5869
5761 5762 5759 5758 5755 5754 5751 5748 5745 5744 5744 5745 5744 5743 5745 5746 5750 5753 5755 5755 5762 5767 5771 5776 5779 5781 5785 5790 5794 5800 5804 5812 5818 5812 5816 5816 5822 5830 5836 5839 5844 5850 5853 5857 5861
5760 5760 5759 5758 5755 5754 5753 5751 5747 5745 5744 5743 5743 5741 5745 5749 5749 5751 5752 5753 5757 5762 5765 5769 5774 5776 5782 5786 5787 5794 5797 5800 5799 5802 5806 5815 5824 5826 5830 5834 5839 5845 5848 5852 5855